Regional Weather Roundup
Issued by NWS

Home | Current Version | Previous Version | Text Only | Print | Product List | Glossary Off
Versions: 1 2 3 4 5 6 7 8 9 10 11 12 13 14 15 16 17 18 19 20 21 22 23 24 25 26 27 28 29 30 31 32 33 34 35 36 37 38 39 40 41 42 43 44 45 46 47 48 49 50

000
ASUS43 KMPX 161210
RWRMN
WEATHER ROUNDUP FOR MINNESOTA
NATIONAL WEATHER SERVICE TWIN CITIES/CHANHASSEN MN
700 AM CDT WED AUG 16 2017


NOTE: "FAIR" INDICATES FEW OR NO CLOUDS BELOW 12,000 FEET WITH NO
SIGNIFICANT WEATHER AND/OR OBSTRUCTIONS TO VISIBILITY. N/A MEANS
CURRENT SKY AND/OR WEATHER CONDITIONS ARE NOT AVAILABLE.

MNZ060>063-068>070-161300-
   Twin Cities Metro

CITY           SKY/WX    TMP DP  RH WIND       PRES   REMARKS
TWIN CITIES    RAIN      66  63  90 SE9       29.92S FOG
6HR MIN TEMP:  64; 6HR MAX TEMP:  67; 6HR PCP:  0.46;

ST PAUL        LGT RAIN  65  64  97 SE9       29.93R
CRYSTAL        CLOUDY    65  61  87 SE8       29.91S
BLAINE         CLOUDY    64  64 100 E8        29.92F
LAKEVILLE      CLOUDY    63  63 100 SE3       29.92S
EDEN PRAIRIE   CLOUDY    66  64  93 E6        29.91R
6HR MIN TEMP:  65; 6HR MAX TEMP:  68; 6HR PCP:  0.49;

SOUTH ST PAUL  LGT RAIN  65  64  99 CALM      29.93R
LAKE ELMO      CLOUDY    64  63  94 E5        29.94S
$$
MNZ001>005-007-008-013>017-022>024-027-028-161300-
   Northwest Minnesota

CITY           SKY/WX    TMP DP  RH WIND       PRES   REMARKS
BEMIDJI        CLOUDY    62  59  90 E10       29.93F
HALLOCK        LGT RAIN  63  61  94 CALM      29.90R
ROSEAU           N/A     64  59  82 CALM      29.92S
WARROAD        CLOUDY    64  61  88 SE3       29.94R
THIEF RVR FALL LGT RAIN  63  59  87 SE9       29.91S
CROOKSTON      DRIZZLE   63  61  94 SE7       29.88S
FOSSTON        DRIZZLE   61  55  82 E6        29.90F
DETROIT LAKES  LGT RAIN  61  61 100 SE8       29.90S
MOORHEAD       CLOUDY    63  63 100 CALM      29.86F FOG
PARK RAPIDS    CLOUDY    64  60  87 E8        29.92S
MAHNOMEN       CLOUDY    62  59  91 E9        29.88F
$$
MNZ006-009>011-018-025>026-161300-
   North Central Minnesota

CITY           SKY/WX    TMP DP  RH WIND       PRES   REMARKS
BAUDETTE       LGT RAIN  61  59  93 SE9       29.94F
FLAG ISLAND    CLOUDY    68  63  83 CALM      29.93R
INTL FALLS     CLOUDY    59  52  77 SE5       29.99S
6HR MIN TEMP:  59; 6HR MAX TEMP:  66; 6HR PCP: TRACE;

WASKISH        CLOUDY    61  57  88 E5        29.95S
BIG FORK       CLOUDY    61  54  77 E6        29.98F
LONGVILLE      CLOUDY    61  57  88 CALM      29.95S
GRAND RAPIDS   CLOUDY    59  55  87 E6        29.99F
CRANE LAKE     PTCLDY    52  50  93 CALM      30.04R
ORR            CLOUDY    57  46  67 CALM      29.98F
COOK             N/A     59  48  67 SE3       30.01F
WALKER         DRIZZLE   62  58  87 E5        29.94S
$$
MNZ012-019>021-037-161300-
   Northeast Minnesota

CITY           SKY/WX    TMP DP  RH WIND       PRES   REMARKS
DULUTH         CLOUDY    57  56  96 E10       30.01F
6HR MIN TEMP:  56; 6HR MAX TEMP:  57;

ELY            CLOUDY    55  46  71 E3        30.04F
HIBBING        CLOUDY    56  51  84 E5        30.00F
EVELETH        CLOUDY    58  51  79 NE5       30.03F
DULUTH HARBOR  CLOUDY    64  61  88 NE15      30.01S
TWO HARBORS    CLOUDY    61  55  82 NE6       30.01F
SILVER BAY     CLOUDY    59  57  94 NE3       30.03S
GRAND MARAIS     N/A     60  55  83 NE6       30.07R
G MARAIS ARPRT CLOUDY    48  45  87 CALM      30.09R
$$
MNZ029>031-032-039>041-046>048-054>057-064-161300-
   West Central Minnesota

CITY           SKY/WX    TMP DP  RH WIND       PRES   REMARKS
FERGUS FALLS   RAIN      64  64 100 SE8       29.86F
WHEATON        CLOUDY    63  61  94 E5        29.86F FOG
MORRIS         CLOUDY    64  64 100 SE7       29.86S FOG
ALEXANDRIA     CLOUDY    63  63 100 SE9       29.90S FOG
ELBOW LAKE     CLOUDY    63  63 100 SE7       29.87F FOG
WADENA         CLOUDY    63  63 100 SE7       29.90S
GLENWOOD       DRIZZLE   63  63 100 E5        29.90S
APPLETON       MIX PCPN  66  63  88 SE8       29.85S
BENSON         DRIZZLE   64  63  94 S9        29.88F
ORTONVILLE     CLOUDY    64  63  94 MISG      29.84F FOG
MADISON        CLOUDY    68  68 100 SE7       29.85S FOG
WILLMAR        CLOUDY    66  64  94 SE5       29.89F
$$
MNZ033>034-036-042>043-049>051-058-059-161300-
   Central Minnesota

CITY           SKY/WX    TMP DP  RH WIND       PRES   REMARKS
ST CLOUD       CLOUDY    63  63 100 SE8       29.91S
6HR MIN TEMP:  62; 6HR MAX TEMP:  63; 6HR PCP:  0.22;

SAUK CENTRE    CLOUDY    62  61  97 SE6       29.91R FOG
PAYNESVILLE    CLOUDY    65  63  94 SE9       29.91S
AITKIN         CLOUDY    59  55  88 E5        29.95S
PINE RIVER     CLOUDY    61  55  82 SE5       29.97S
BRAINERD       CLOUDY    63  58  83 CALM      29.93F
STAPLES        LGT RAIN  61  59  94 E5        29.91S
LONG PRAIRIE   CLOUDY    61  61 100 E5        29.91S FOG
LITTLE FALLS   CLOUDY    61  59  94 E5        29.91S
LITCHFIELD     CLOUDY    66  64  94 SE9       29.91S
BUFFALO        CLOUDY    64  61  91 E6        29.93S
MAPLE LAKE     CLOUDY    65  64  96 SE5       29.93R
HUTCHINSON     CLOUDY    65  64  95 E7        29.91S
$$
MNZ037-044-045-052-053-161300-
   East Central Minnesota

CITY           SKY/WX    TMP DP  RH WIND       PRES   REMARKS
PRINCETON      CLOUDY    63  61  94 E6        29.93S
MORA           RAIN      59  55  88 CALM      29.97S
RUSH CITY      LGT RAIN  62  58  87 E3        29.95F
MOOSE LAKE     CLOUDY    59  54  82 CALM      29.97S
HINCKLEY       PTSUNNY   61  59  94 E6        29.96F
CLOQUET        PTCLDY    59  55  88 E5        30.00S
MCGREGOR       MOCLDY    57  55  94 E6        29.98S
$$
MNZ071>073-080-081-089-090-097-098-161300-
   Southwest Minnesota

CITY           SKY/WX    TMP DP  RH WIND       PRES   REMARKS
MONTEVIDEO     CLOUDY    64  64 100 SE5       29.86F FOG
GRANITE FALLS  CLOUDY    66  66  97 SE8       29.88S FOG
CANBY          CLOUDY    66  65  96 CALM      29.86S FOG
MARSHALL       CLOUDY    67  65  93 CALM      29.85F
REDWOOD FALLS  MOCLDY    65  63  93 SE7       29.86F FOG
OLIVIA         CLOUDY    64  63  94 SE7       29.87F FOG
PIPESTONE      CLOUDY    64  63  94 CALM      29.86F FOG
WINDOM         CLOUDY    66  64  94 SE6       29.89R FOG
WORTHINGTON    CLOUDY    66  65  96 E3        29.88S FOG
JACKSON        FOG       64  64 100 CALM      29.89F VSB 3/4
TRACY          CLOUDY    67  66  97 S5        29.87S FOG
SLAYTON        MOCLDY    64  60  86 CALM      29.88F FOG
$$
MNZ065>067-074>077-082>085-091>093-161300-
   South Central Minnesota

CITY           SKY/WX    TMP DP  RH WIND       PRES   REMARKS
MANKATO        CLOUDY    65  63  93 SE8       29.91R
NEW ULM        RAIN      64  63  94 E3        29.88F
ST JAMES       LGT RAIN  64  64 100 SE5       29.89S
FAIRMONT       CLOUDY    65  64  97 E5        29.89F FOG
GLENCOE        CLOUDY    65  65 100 E6        29.90S
FARIBAULT      LGT RAIN  64  63  94 E8        29.92S
OWATONNA       CLOUDY    64  63  94 NE5       29.92R
WASECA         CLOUDY    63  61  94 E7        29.92S
ALBERT LEA     CLOUDY    66  66 100 SE9       29.90S FOG
$$
MNZ078>079-086>088-094>096-161300-
   Southeast Minnesota

CITY           SKY/WX    TMP DP  RH WIND       PRES   REMARKS
ROCHESTER      CLOUDY    63  62  97 SE14      29.94F
6HR MIN TEMP:  63; 6HR MAX TEMP:  64; 6HR PCP:  0.03;

RED WING       LGT RAIN  66  63  88 SE10      29.93R
STANTON        TSTM      65  63  90 SE8       29.92R
DODGE CENTER   CLOUDY    64  63  94 E7        29.93S FOG
WINONA         CLOUDY    63  61  94 SE8       29.97S
AUSTIN         CLOUDY    64  63  94 E9        29.92R FOG
PRESTON        CLOUDY    63  58  85 E10       29.96S
$$
ABBREVIATIONS USED IN REMARKS
   TC - TEMPERATURES IN CELSIUS
  WCI - WIND CHILL INDEX
   HX - HEAT INDEX
  VSB - VISIBILITY
$$




USA.gov is the U.S. government's official web portal to all federal, state and local government web resources and services.